Regional Weather Roundup
Issued by NWS

Home | Current Version | Previous Version | Text Only | Print | Product List | Glossary On
Versions: 1 2 3 4 5 6 7 8 9 10 11 12 13 14 15 16 17 18 19 20 21 22 23 24 25 26 27 28 29 30 31 32 33 34 35 36 37 38 39 40 41 42 43 44 45 46 47 48 49 50
000
ASUS43 KMPX 171801
RWRMN
WEATHER ROUNDUP FOR MINNESOTA
NATIONAL WEATHER SERVICE TWIN CITIES/CHANHASSEN MN
1200 PM CST SUN DEC 17 2017


NOTE: "FAIR" INDICATES FEW OR NO CLOUDS BELOW 12,000 FEET WITH NO
SIGNIFICANT WEATHER AND/OR OBSTRUCTIONS TO VISIBILITY. N/A MEANS
CURRENT SKY AND/OR WEATHER CONDITIONS ARE NOT AVAILABLE.

MNZ060>063-068>070-171900-
   Twin Cities Metro

CITY           SKY/WX    TMP DP  RH WIND       PRES   REMARKS
TWIN CITIES    CLOUDY    27  24  89 CALM      30.05F FOG
6HR MIN TEMP:  21; 6HR MAX TEMP:  27;

ST PAUL        CLOUDY    26  24  92 CALM      30.07F FOG
CRYSTAL        CLOUDY    24  19  81 N5        30.05F HAZE    WCI  18
BLAINE         CLOUDY    25  25 100 N3        30.05F FOG
LAKEVILLE      CLOUDY    23  23 100 CALM      30.05F FOG
EDEN PRAIRIE   CLOUDY    27  22  81 CALM      30.04F HAZE
6HR MIN TEMP:  22; 6HR MAX TEMP:  27;

SOUTH ST PAUL  CLOUDY    27  25  92 CALM      30.06F FOG
LAKE ELMO      CLOUDY    28  27  93 CALM      30.06F FOG
$$
MNZ001>005-007-008-013>017-022>024-027-028-171900-
   Northwest Minnesota

CITY           SKY/WX    TMP DP  RH WIND       PRES   REMARKS
BEMIDJI        SUNNY     30  26  83 SW7       29.97F WCI  23
HALLOCK        SUNNY     18  16  93 S7        29.94F WCI   8
ROSEAU         SUNNY     21  18  86 SW5       29.93F WCI  15
WARROAD        SUNNY     25  19  80 SW7       29.93F WCI  17
CROOKSTON      SUNNY     19  18  93 S3        30.00F
FOSSTON        FOG       25  25 100 SW9       29.98F VSB 1/4 WCI  15
DETROIT LAKES  CLOUDY    28  28 100 S7        30.01F WCI  21
MOORHEAD       CLOUDY    28  27  93 CALM      30.02F FOG
PARK RAPIDS    CLOUDY    26  24  92 S6        29.99F FOG     WCI  19
MAHNOMEN       FOG       27  27  97 SW8       29.99F VSB 1/2 WCI  19
$$
MNZ006-009>011-018-025>026-171900-
   North Central Minnesota

CITY           SKY/WX    TMP DP  RH WIND       PRES   REMARKS
BAUDETTE       PTSUNNY   26  24  92 SW7       29.93F WCI  18
FLAG ISLAND    MOSUNNY   23  21  93 SW3       29.90F
INTL FALLS     CLOUDY    27  24  89 SW9       29.93F FOG     WCI  18
6HR MIN TEMP:  22; 6HR MAX TEMP:  27;

WASKISH        CLOUDY    27  25  93 SW10      29.96F WCI  17
BIG FORK       CLOUDY    27  25  93 S5        29.97F FOG     WCI  21
LONGVILLE      CLOUDY    27  25  93 S7        30.00F FOG     WCI  19
GRAND RAPIDS   CLOUDY    24  22  91 S7        30.02F FOG     WCI  16
CRANE LAKE     CLOUDY    25  21  86 S6        29.99F WCI  18
ORR            CLOUDY    25  21  86 S5        29.95F WCI  19
COOK           CLOUDY    25  21  86 S8        29.98F WCI  16
WALKER         CLOUDY    26  24  92 SW7       29.99F FOG     WCI  18
$$
MNZ012-019>021-037-171900-
   Northeast Minnesota

CITY           SKY/WX    TMP DP  RH WIND       PRES   REMARKS
DULUTH         CLOUDY    22  20  92 SW5       30.01F FOG     WCI  16
6HR MIN TEMP:  19; 6HR MAX TEMP:  22;

ELY            CLOUDY    21  19  93 S7        29.98F WCI  13
HIBBING        CLOUDY    21  20  96 S5        30.00F WCI  15
EVELETH        CLOUDY    20  17  88 S6        30.01F WCI  12
DULUTH HARBOR  CLOUDY    27  21  80 SW7       30.07F WCI  19
TWO HARBORS    CLOUDY    30  23  74 CALM      30.00F
GRAND MARAIS     N/A     29  24  82 W6        30.03F WCI  23
G MARAIS ARPRT CLOUDY    21  18  86 S6        29.97F FOG     WCI  14
$$
MNZ029>031-032-039>041-046>048-054>057-064-171900-
   West Central Minnesota

CITY           SKY/WX    TMP DP  RH WIND       PRES   REMARKS
FERGUS FALLS   CLOUDY    28  28 100 S6        30.05F FOG     WCI  22
WHEATON        MOSUNNY   30  28  93 S5        30.04F FOG     WCI  25
MORRIS         CLOUDY    28  28 100 S6        30.03F FOG     WCI  22
ALEXANDRIA     CLOUDY    28  27  96 S7        30.02F FOG     WCI  21
ELBOW LAKE     CLOUDY    28  28 100 S8        30.02F FOG     WCI  20
WADENA         CLOUDY    27  27 100 SW5       30.01F FOG     WCI  21
GLENWOOD       CLOUDY    27  27 100 SW3       30.03F FOG
APPLETON       CLOUDY    30  27  86 CALM      30.04F FOG
BENSON         CLOUDY    28  27  93 CALM      30.06F FOG
ORTONVILLE     CLOUDY    28  27  93 S5        30.03F FOG     WCI  23
MADISON        CLOUDY    32  32 100 S3        30.04F FOG
WILLMAR        CLOUDY    27  27 100 CALM      30.05F FOG
$$
MNZ033>034-036-042>043-049>051-058-059-171900-
   Central Minnesota

CITY           SKY/WX    TMP DP  RH WIND       PRES   REMARKS
ST CLOUD       CLOUDY    24  20  84 CALM      30.04F
6HR MIN TEMP:  20; 6HR MAX TEMP:  25;

SAUK CENTRE    CLOUDY    24  23  97 CALM      30.04F FOG
PAYNESVILLE    CLOUDY    26  22  86 CALM      30.04F
AITKIN         CLOUDY    21  19  93 S6        30.01F FOG     WCI  14
PINE RIVER     CLOUDY    25  23  93 S7        30.05F FOG     WCI  17
BRAINERD       CLOUDY    25  22  88 SW7       30.03F FOG     WCI  17
STAPLES        CLOUDY    25  25 100 SE7       30.02F FOG     WCI  17
LONG PRAIRIE   CLOUDY    27  25  93 S3        30.03F FOG
LITTLE FALLS   CLOUDY    25  18  74 CALM      30.05F
LITCHFIELD     CLOUDY    27  21  80 CALM      30.04F
BUFFALO        CLOUDY    24  20  84 CALM      30.05F
MAPLE LAKE     CLOUDY    27  23  85 CALM      30.05F
HUTCHINSON     PTSUNNY   26  21  80 CALM      30.05F
$$
MNZ037-044-045-052-053-171900-
   East Central Minnesota

CITY           SKY/WX    TMP DP  RH WIND       PRES   REMARKS
PRINCETON      CLOUDY    27  21  80 CALM      30.05F
MORA           CLOUDY    25  19  80 CALM      30.06F
CAMBRIDGE      CLOUDY    25  21  86 CALM      30.06F
RUSH CITY      CLOUDY    23  21  91 CALM      30.06F FOG
MOOSE LAKE     CLOUDY    25  19  80 SW3       30.03F
HINCKLEY       CLOUDY    25  21  86 CALM      30.06F
CLOQUET        CLOUDY    23  19  86 SW3       30.02F
MCGREGOR       CLOUDY    25  23  93 S5        30.03F WCI  19
$$
MNZ071>073-080-081-089-090-097-098-171900-
   Southwest Minnesota

CITY           SKY/WX    TMP DP  RH WIND       PRES   REMARKS
MONTEVIDEO     CLOUDY    28  28 100 CALM      30.05F FOG
GRANITE FALLS  CLOUDY    29  25  86 CALM      30.07F FOG
CANBY          CLOUDY    31  30  94 E5        30.05F FOG     WCI  27
MARSHALL       CLOUDY    30  26  85 CALM      30.05F
REDWOOD FALLS  CLOUDY    29  23  78 CALM      30.06F
OLIVIA         CLOUDY    30  27  86 CALM      30.04F HAZE
PIPESTONE      MOSUNNY   28  27  93 N3        30.01F FOG
WINDOM           N/A     28  18  64 N3        30.03F HAZE
WORTHINGTON    CLOUDY    27  26  96 N7        30.03F FOG     WCI  19
JACKSON        CLOUDY    32  23  69 NE5       30.03S WCI  27
SLAYTON        CLOUDY    27  27  99 NW5       30.04F FOG     WCI  22
$$
MNZ065>067-074>077-082>085-091>093-171900-
   South Central Minnesota

CITY           SKY/WX    TMP DP  RH WIND       PRES   REMARKS
MANKATO        CLOUDY    26  22  84 CALM      30.06S FOG
NEW ULM        CLOUDY    27  19  74 CALM      30.05F
ST JAMES       MOSUNNY   28  21  74 N3        30.06S
FAIRMONT       CLOUDY    29  24  82 N6        30.05S WCI  23
GLENCOE        CLOUDY    27  25  95 CALM      30.04F FOG
FARIBAULT      CLOUDY    25  25 100 CALM      30.04F FOG
OWATONNA       CLOUDY    27  25  93 CALM      30.03F FOG
WASECA         CLOUDY    27  25  93 CALM      30.05S FOG
$$
MNZ078>079-086>088-094>096-171900-
   Southeast Minnesota

CITY           SKY/WX    TMP DP  RH WIND       PRES   REMARKS
ROCHESTER      CLOUDY    27  27 100 CALM      30.02F FOG
6HR MIN TEMP:  24; 6HR MAX TEMP:  27;

RED WING       CLOUDY    27  23  86 CALM      30.05F FOG
STANTON        CLOUDY    27  25  91 CALM      30.03F FOG
DODGE CENTER   FOG       25  25 100 CALM      30.01F VSB 3/4
WINONA           N/A     30  28  93 E5        30.06F WCI  25
AUSTIN         CLOUDY    27  27 100 CALM      30.02S FOG
PRESTON        CLOUDY    27  26  96 SE3       30.02F FOG
$$
ABBREVIATIONS USED IN REMARKS
   TC - TEMPERATURES IN CELSIUS
  WCI - WIND CHILL INDEX
   HX - HEAT INDEX
  VSB - VISIBILITY
$$




USA.gov is the U.S. government's official web portal to all federal, state and local government web resources and services.